Tracking 19245 objects as of 15-Aug-2018
HD Live streaming from Space Station
objects crossing your sky now

FLOCK 3P 30

Track FLOCK 3P 30 now!
10-day predictions
FLOCK 3P 30 is classified as:


NORAD ID: 41987
Int'l Code: 2017-008AR
Perigee: 493.3 km
Apogee: 505.2 km
Inclination: 97.4 °
Period: 94.5 minutes
Semi major axis: 6870 km
RCS: Unknown
Launch date: February 15, 2017
Source: United States (US)
Launch site: SRIHARIKOTA (SRI)
aabbcc
Your satellite tracking list
Your tracking list is empty




NASA's NSSDC Master Catalog

Two Line Element Set (TLE):
1 41987U 17008AR  18226.73033777  .00000891  00000-0  39096-4 0  9990
2 41987  97.4470 291.3684 0008661 141.0072 219.1792 15.24554239 82822
Source of the keplerian elements: AFSPC